Showing default

COSMOS 90, 1588

Orbit data source: Space-Track

COSMOS 90, 1588 is a payload satellite owned by OKB-10 (CIS) in LEO that was launched on Sat, 18 Sep 1965 UTC via a KOSMOS 65S3 launch vehicle from the Tyuratam Missile And Space Complex (TTMTR). Payload-class satellites include a variety of spacecraft equipped with specific instruments for various scientific and technological missions. These include communications satellites like Starlink; space stations such as the ISS; scientific satellites like the Hubble; Earth observation satellites from companies like Planet Labs, Umbra, and HawkEye 360; GPS; miniature CubeSats for education and research; and military/defense satellites.

Loading next visibility...
Identifier
1588, 1965-073E
Orbit
LEO
Last TLE update
8 hours ago
Origin
Manufacturer
OKB-10
Mission
Defense Communications
Bus & Motor
STRELA-1 11F610, Unknown motor
Mass
50 kg wet, 50 kg dry
Launch date (UTC)
1965-09-18 (60 years ago)
Launch vehicle
KOSMOS 65S3
Launch site
Tyuratam Missile And Space Complex (TTMTR)
Object type
Payload
Rocket body
Debris
Shape & HBR
Poly, 0.8 m
Radar Cross Section
0.731 m², Medium (>0.1 m² and < 1m²)

Expand to show TLE details & history

TLE from 8 hours ago
0 COSMOS 90
1  1588U 65073E   25182.19631337 -.00000083  00000-0  60341-4 0  9994
2  1588  56.0562 112.6734 0155234 339.5395 163.9363 12.34588986696308
Epoch: 2025-07-01T04:42Z
TLE epoch observation values (Epoch: 2025-07-01T04:42:41.475Z)
Latitude
29.28747°
Longitude
-79.56303°
Altitude
1,649.563 km
Speed
6.998 km/s
True Right ascension
18h 02m 25s
True Declination
29° 09' 26"
Sunlit
Object was in daylight at epoch
Visualization orbit readout
Latitude
-37.76576°
Longitude
-27.13407°
Altitude
1,587.869 km
Speed
7.054 km/s
Apparent Right ascension
18h 09m 55s
Apparent Declination
-62° 58' 31"
Sunlit
Object is in full shadow
Visualization observer readout
Local Sidereal Time
00:35:39
Azimuth
214.762° SW
Elevation
-37.637°
Doppler factor
1
Orbital elements
Apogee altitude
1,652.202 km
Perigee altitude
1,406.697 km
Semi-major axis
7,907.587 km
Eccentricity
0.01552
Inclination
56.0562°
RAAN
112.6734°
Arg. of periapsis
339.5395°
True anomaly
Unknown
Mean anomaly
163.9363°
Eccentric anomaly
Unknown
Mean motion
3.08658 °/min
Orbital period
116.63 mins
BSTAR
0.000060341
Loading maneuver chart data...
Loading SW <> Apogee altitude chart data...
Loading historical data...
Loading historical data...
Loading historical data...
Loading historical data...
Loading historical data...
Loading historical data...
Loading historical data...

COSMOS 90 Visibility forecast

Observer location: undefined°, undefined°

Span
Click to sort rows by Start time (UTC) header in descending order
Start Az.
Max El. time (UTC)
Max El. Az.
Max El.
End time (UTC)
End Az.
9 mins2025-07-01 19:35:47.768Z145.361° SSE2025-07-01 19:39:47.768Z116.041° SE16.522°2025-07-01 19:44:47.768Z79.527° E
16 mins2025-07-01 21:33:47.768Z213.331° SW2025-07-01 21:40:47.768Z125.917° SE44.195°2025-07-01 21:49:47.768Z47.67° ENE
15 mins2025-07-01 23:36:47.768Z271.656° WNW2025-07-01 23:43:47.768Z340.072° N33.427°2025-07-01 23:51:47.768Z42.093° NE
14 mins2025-07-02 01:41:47.768Z311.476° NW2025-07-02 01:47:47.768Z359.983° N26.258°2025-07-02 01:55:47.768Z59.182° ENE
17 mins2025-07-02 03:44:47.768Z321.039° NNW2025-07-02 03:52:47.768Z34.148° NE36.125°2025-07-02 04:01:47.768Z101.693° ESE
18 mins2025-07-02 05:46:47.768Z309.636° NW2025-07-02 05:54:47.768Z241.708° WSW42.757°2025-07-02 06:04:47.768Z151.462° SSE
9 mins2025-07-02 07:51:47.768Z273.926° WNW2025-07-02 07:55:47.768Z247.53° W15.326°2025-07-02 08:00:47.768Z216.14° SW
|